Bogalusa, LA

11:32 AM CST on January 20, 2018 (GMT -0600)
Carr Memorial

Weather History for KBXA - January, 2014

Change the Weather History Date:

Friday, January 24, 2014

  Actual Average Record
Temperature  
Mean Temperature 33 °F -  
Max Temperature 37 °F 61 °F 72 °F (2013)
Min Temperature 29 °F 38 °F 26 °F (2016)
Degree Days  
Heating Degree Days 32    
Moisture  
Dew Point 19 °F    
Average Humidity 62    
Maximum Humidity 88    
Minimum Humidity 31    
Precipitation  
Precipitation 0.00 in - - ()
Sea Level Pressure  
Sea Level Pressure 30.54 in    
Wind  
Wind Speed 8 mph (NNE)    
Max Wind Speed 16 mph    
Max Gust Speed 22 mph    
Visibility 10 miles    
Events Rain , Snow , Thunderstorm    
Averages and records for this station are not official NWS values.
T = Trace of Precipitation, MM = Missing Value Source: NWS Daily Summary

Daily Weather History Graph

Daily Weather History Graph

Search for Another Location

Airport or City:

Trip Planner

Search our weather history database for the weather conditions in past years. The results will help you decide how hot, cold, wet, or windy it might be!

Date:

Astronomy

Jan. 24, 2014 Rise Set
Actual Time 6:55 AM CST 5:28 PM CST
Civil Twilight 6:29 AM CST 5:53 PM CST
Nautical Twilight 6:00 AM CST 6:23 PM CST
Astronomical Twilight 5:31 AM CST 6:51 PM CST
Moon 12:28 AM CST (1/24) 11:42 AM CST (1/24)
Length of Visible Light 11h 24m
Length of Day
10h 33m
Last Quarter, 44% of the Moon is Illuminated
Jan 24
Last Quarter
Jan 30
New
Feb 6
First Quarter
Feb 14
Full
Feb 22
Last Quarter

Hourly Weather History & Observations

Time (CST) Temp. Windchill Dew Point Humidity Pressure Visibility Wind Dir Wind Speed Gust Speed Precip Events Conditions
12:15 AM 37.0 °F 29.8 °F 24.1 °F 59% 30.61 in 10.0 mi North 10.4 mph - N/A   Unknown
12:35 AM 36.5 °F 27.0 °F 23.4 °F 59% 30.62 in 10.0 mi North 16.1 mph 20.7 mph N/A   Unknown
12:55 AM 33.6 °F 23.3 °F 27.3 °F 78% 30.64 in 5.0 mi North 16.1 mph 21.9 mph N/A Snow Light Snow
1:15 AM 32.4 °F 24.6 °F 28.4 °F 85% 30.64 in 4.0 mi NNE 9.2 mph 17.3 mph N/A Snow Light Snow
1:35 AM 32.0 °F 25.6 °F 28.6 °F 87% 30.64 in 5.0 mi NNE 6.9 mph - N/A Snow Light Snow
1:55 AM 32.2 °F 24.4 °F 27.9 °F 84% 30.63 in 10.0 mi NNE 9.2 mph 16.1 mph N/A   Unknown
2:15 AM 32.4 °F 24.6 °F 26.8 °F 80% 30.63 in 10.0 mi NNE 9.2 mph - N/A   Unknown
2:35 AM 32.5 °F 24.8 °F 26.8 °F 79% 30.63 in 10.0 mi North 9.2 mph 16.1 mph N/A   Unknown
2:55 AM 32.7 °F 25.0 °F 26.4 °F 78% 30.63 in 10.0 mi North 9.2 mph - N/A   Unknown
3:15 AM 32.7 °F 24.5 °F 24.8 °F 73% 30.62 in 7.0 mi NNE 10.4 mph - N/A Snow Light Snow
3:35 AM 32.9 °F 25.3 °F 23.4 °F 68% 30.61 in 10.0 mi NNE 9.2 mph 16.1 mph N/A   Unknown
3:55 AM 33.3 °F 24.6 °F 21.4 °F 62% 30.61 in 10.0 mi NNE 11.5 mph 17.3 mph N/A   Unknown
4:15 AM 33.3 °F 25.7 °F 19.4 °F 57% 30.61 in 10.0 mi NNE 9.2 mph - N/A   Unknown
4:35 AM 33.1 °F 26.9 °F 19.4 °F 57% 30.60 in 10.0 mi NE 6.9 mph - N/A   Unknown
4:55 AM 32.5 °F 24.8 °F 17.6 °F 54% 30.60 in 10.0 mi NE 9.2 mph 16.1 mph N/A   Unknown
5:15 AM 32.4 °F 26.9 °F 16.5 °F 52% 30.59 in 10.0 mi NE 5.8 mph - N/A   Unknown
5:35 AM 32.5 °F 25.5 °F 13.6 °F 46% 30.59 in 10.0 mi NE 8.1 mph - N/A   Unknown
5:55 AM 32.9 °F 26.7 °F 12.2 °F 42% 30.60 in 10.0 mi NE 6.9 mph - N/A   Unknown
6:15 AM 32.9 °F 27.5 °F 11.3 °F 41% 30.61 in 10.0 mi NE 5.8 mph - N/A Thunderstorm Unknown
6:35 AM 32.9 °F 24.7 °F 7.3 °F 34% 30.61 in 10.0 mi NE 10.4 mph - N/A   Unknown
6:55 AM 32.9 °F 24.7 °F 5.5 °F 32% 30.60 in 10.0 mi NE 10.4 mph 18.4 mph N/A   Unknown
7:15 AM 32.9 °F 24.7 °F 5.2 °F 31% 30.61 in 10.0 mi NNE 10.4 mph 17.3 mph N/A   Unknown
7:35 AM 32.9 °F 25.9 °F 5.0 °F 31% 30.61 in 10.0 mi NE 8.1 mph 16.1 mph N/A   Unknown
7:55 AM 32.9 °F 26.7 °F 5.0 °F 31% 30.62 in 10.0 mi NE 6.9 mph - N/A   Unknown
8:15 AM 32.7 °F 25.0 °F 8.6 °F 37% 30.62 in 10.0 mi NNE 9.2 mph - N/A   Unknown
8:35 AM 32.2 °F 23.8 °F 9.3 °F 39% 30.62 in 10.0 mi NE 10.4 mph - N/A Snow Light Snow
8:55 AM 32.4 °F 24.0 °F 7.3 °F 35% 30.61 in 10.0 mi NNE 10.4 mph - N/A Snow Light Snow
9:15 AM 32.4 °F 24.0 °F 8.4 °F 37% 30.61 in 10.0 mi NE 10.4 mph - N/A Rain Light Rain
9:35 AM 32.9 °F 25.3 °F 7.5 °F 35% 30.61 in 10.0 mi NE 9.2 mph - N/A   Light Drizzle
9:55 AM 33.1 °F 25.5 °F 7.3 °F 34% 30.62 in 10.0 mi NE 9.2 mph - N/A   Unknown
10:15 AM 33.3 °F 27.9 °F 8.4 °F 35% 30.62 in 10.0 mi NNE 5.8 mph - N/A Snow Light Snow
10:35 AM 33.4 °F 29.1 °F 9.3 °F 37% 30.62 in 10.0 mi ENE 4.6 mph - N/A Rain Light Rain
10:55 AM 33.3 °F 28.9 °F 8.8 °F 36% 30.62 in 10.0 mi NNE 4.6 mph - N/A   Unknown
11:15 AM 33.8 °F 28.6 °F 9.0 °F 36% 30.61 in 10.0 mi NE 5.8 mph - N/A   Light Drizzle
11:35 AM 33.6 °F 30.6 °F 10.2 °F 38% 30.61 in 10.0 mi NE 3.5 mph - N/A   Light Drizzle
11:55 AM 33.1 °F 28.7 °F 9.5 °F 37% 30.59 in 10.0 mi NNE 4.6 mph - N/A   Light Drizzle
12:15 PM 32.9 °F 28.5 °F 12.4 °F 43% 30.58 in 10.0 mi NNE 4.6 mph - N/A Rain Light Rain
12:35 PM 32.4 °F 27.9 °F 16.0 °F 51% 30.57 in 10.0 mi North 4.6 mph - N/A Rain Light Rain
12:55 PM 32.2 °F 27.7 °F 18.7 °F 58% 30.56 in 10.0 mi North 4.6 mph - N/A Rain Light Rain
1:15 PM 32.0 °F 27.5 °F 17.2 °F 55% 30.55 in 10.0 mi NNE 4.6 mph - N/A Rain Light Rain
1:35 PM 32.0 °F 27.5 °F 18.9 °F 58% 30.54 in 10.0 mi NNE 4.6 mph - N/A   Unknown
1:55 PM 32.0 °F 24.8 °F 20.3 °F 62% 30.53 in 10.0 mi North 8.1 mph - N/A   Unknown
2:15 PM 32.0 °F 25.6 °F 19.9 °F 61% 30.53 in 10.0 mi NNE 6.9 mph - N/A Thunderstorm Unknown
2:35 PM 31.6 °F 25.1 °F 20.8 °F 64% 30.52 in 10.0 mi NNE 6.9 mph - N/A   Unknown
2:55 PM 30.9 °F 23.5 °F 22.8 °F 72% 30.51 in 10.0 mi North 8.1 mph - N/A   Unknown
3:15 PM 30.4 °F 23.6 °F 23.9 °F 77% 30.51 in 10.0 mi North 6.9 mph - N/A   Unknown
3:35 PM 30.2 °F 25.4 °F 23.0 °F 75% 30.51 in 7.0 mi NNE 4.6 mph - N/A   Unknown
3:55 PM 30.2 °F 26.7 °F 22.6 °F 73% 30.51 in 10.0 mi North 3.5 mph - N/A   Unknown
4:15 PM 30.2 °F - 23.4 °F 76% 30.51 in 7.0 mi Calm Calm - N/A   Unknown
4:35 PM 30.4 °F 26.9 °F 23.7 °F 76% 30.51 in 7.0 mi NNE 3.5 mph - N/A   Unknown
4:55 PM 30.2 °F 25.4 °F 24.1 °F 78% 30.50 in 5.0 mi North 4.6 mph - N/A   Unknown
5:15 PM 30.0 °F 26.5 °F 23.2 °F 76% 30.50 in 7.0 mi NNE 3.5 mph - N/A   Unknown
5:35 PM 29.8 °F - 23.4 °F 77% 30.48 in 10.0 mi Calm Calm - N/A   Unknown
5:55 PM 29.8 °F - 22.3 °F 73% 30.48 in 10.0 mi Calm Calm - N/A   Unknown
6:15 PM 29.8 °F - 22.5 °F 74% 30.48 in 10.0 mi Calm Calm - N/A   Unknown
6:35 PM 30.0 °F - 23.0 °F 75% 30.48 in 10.0 mi Calm Calm - N/A   Unknown
6:55 PM 30.0 °F 26.5 °F 22.8 °F 75% 30.47 in 10.0 mi NNE 3.5 mph - N/A   Unknown
7:15 PM 30.2 °F - 22.8 °F 74% 30.47 in 10.0 mi Calm Calm - N/A   Unknown
7:40 PM 30.2 °F - 22.5 °F 73% 30.45 in 10.0 mi Calm Calm - N/A   Unknown
7:55 PM 30.2 °F - 23.2 °F 75% 30.46 in 10.0 mi Calm Calm - N/A   Unknown
8:15 PM 30.6 °F - 22.6 °F 72% 30.45 in 10.0 mi Calm Calm - N/A   Unknown
8:35 PM 30.7 °F - 22.6 °F 72% 30.44 in 10.0 mi Calm Calm - N/A   Unknown
8:55 PM 30.9 °F - 24.4 °F 77% 30.43 in 10.0 mi Calm Calm - N/A   Unknown
9:15 PM 30.9 °F - 24.6 °F 77% 30.42 in 10.0 mi Calm Calm - N/A   Unknown
9:35 PM 30.9 °F - 25.2 °F 79% 30.42 in 10.0 mi Calm Calm - N/A   Unknown
9:55 PM 31.1 °F 26.4 °F 26.1 °F 82% 30.41 in 10.0 mi SSW 4.6 mph - N/A   Unknown
10:15 PM 30.9 °F 25.2 °F 25.9 °F 82% 30.40 in 10.0 mi SSW 5.8 mph - N/A   Unknown
10:35 PM 30.9 °F 27.5 °F 26.6 °F 84% 30.39 in 10.0 mi SW 3.5 mph - N/A   Unknown
10:55 PM 30.9 °F 26.2 °F 27.1 °F 86% 30.38 in 10.0 mi SW 4.6 mph - N/A   Unknown
11:15 PM 31.1 °F - 27.5 °F 87% 30.38 in 10.0 mi Calm Calm - N/A   Unknown
11:35 PM 31.1 °F - 27.9 °F 88% 30.38 in 10.0 mi Calm Calm - N/A   Unknown
11:55 PM 31.6 °F 27.0 °F 28.2 °F 87% 30.35 in 10.0 mi SW 4.6 mph - N/A   Unknown